Volver al catálogo

SL-16 DEB

ActivoLEO
NORAD 22362·DEBRIS·🇷🇺 Russia

Lanzado Dec 25, 1992 desde Baikonur Cosmodrome

Loading…

Próximos Pases (próximas 24 horas)

TLE

ActualizadoSource: Space-Track

Época: Sep 14, 2026, 11:13 UTC

1 22362U 92093BB  26257.46804780  .00000550  00000-0  42248-3 0  9990
2 22362  70.8918 288.7458 0185039  23.8949  43.1524 13.89748001693540

Sigue SL-16 DEB en tiempo real con AllMySat

Download on the App Store